Hourly Data Report for July 05, 2017

TORONTO CITY
ONTARIO

43°40'00.000" N
79°24'00.000" W
112.50 m
6158355
71508
XTO

Download Data

Hourly Data (July 2017)
Hourly Data Report for July 5, 2017
TIME
LST
Temp Definition
°C
Dew Point Definition
°C
Rel Hum Definition
%
Precip. Amount Definition
mm

Wind Dir Definition
10's deg

Wind Spd Definition
km/h
Visibility Definition
km
Stn Press Definition
kPa
Hmdx Definition


Wind Chill Definition


Weather Definition


00:00 18.8 8.3 51 0.0 LegendMM LegendMM   100.75     LegendNANA
01:00 19.5 8.4 49 0.0 LegendMM LegendMM   100.73     LegendNANA
02:00 18.1 9.1 55 0.0 LegendMM LegendMM   100.74     LegendNANA
03:00 17.4 9.7 60 0.0 LegendMM LegendMM   100.77     LegendNANA
04:00 16.4 11.0 71 0.0 LegendMM LegendMM   100.82     LegendNANA
05:00 16.2 10.8 71 0.0 LegendMM LegendMM   100.85     LegendNANA
06:00 17.5 10.5 64 0.0 LegendMM LegendMM   100.89     LegendNANA
07:00 20.9 10.3 51 0.0 LegendMM LegendMM   100.93     LegendNANA
08:00 22.7 10.6 46 0.0 LegendMM LegendMM   100.93     LegendNANA
09:00 23.8 7.7 36 0.0 LegendMM LegendMM   100.90     LegendNANA
10:00 24.1 7.7 35 0.0 LegendMM LegendMM   100.87     LegendNANA
11:00 24.5 7.4 33 0.0 LegendMM LegendMM   100.86 25   LegendNANA
12:00 24.4 7.5 34 0.0 LegendMM LegendMM   100.79 25   LegendNANA
13:00 25.6 7.8 32 0.0 LegendMM LegendMM   100.76 26   LegendNANA
14:00 25.6 7.3 31 0.0 LegendMM LegendMM   100.71 26   LegendNANA
15:00 26.1 7.4 30 0.0 LegendMM LegendMM   100.66 26   LegendNANA
16:00 25.7 7.7 32 0.0 LegendMM LegendMM   100.58 26   LegendNANA
17:00 24.9 7.5 33 0.0 LegendMM LegendMM   100.54 25   LegendNANA
18:00 24.0 6.6 33 0.0 LegendMM LegendMM   100.52     LegendNANA
19:00 23.2 7.4 36 0.0 LegendMM LegendMM   100.51     LegendNANA
20:00 22.5 8.0 39 0.0 LegendMM LegendMM   100.49     LegendNANA
21:00 21.6 8.9 44 0.0 LegendMM LegendMM   100.52     LegendNANA
22:00 20.7 9.9 50 0.0 LegendMM LegendMM   100.48     LegendNANA
23:00 20.5 10.3 52 0.0 LegendMM LegendMM   100.46     LegendNANA

Notes on Data Quality.

Legend

  • E = Estimated
  • M = Missing
  • NA = Not Available*
  • [empty] = Indicates an unobserved value
Date modified: